Tracking 29040 objects as of 16-Jun-2024
HD Live streaming from Space Station
objects crossing your sky now

ONEWEB-0124

Track ONEWEB-0124 now!
10-day predictions
ONEWEB-0124 is classified as:


NORAD ID: 47270
Int'l Code: 2020-100N
Perigee: 1,219.1 km
Apogee: 1,222.6 km
Inclination: 87.9 °
Period: 109.7 minutes
Semi major axis: 7591 km
RCS: Unknown
Launch date: December 18, 2020
Source: United Kingdom (UK)
Launch site: VOSTOCHNY COSMODROME (VOSTO)
Your satellite tracking list
Your tracking list is empty




NASA's NSSDC Master Catalog

Two Line Element Set (TLE):
1 47270U 20100N   24168.46318044 -.00000105  00000-0 -32837-3 0  9998
2 47270  87.8939 136.1765 0002349  87.1889 272.9508 13.12443225168728
Source of the keplerian elements: AFSPC